MET-2/21
1 22782U 93055A 18123.56137267 .00000009 00000-0 -52979-5 0 9992
2 22782 082.5461 129.3508 0020920 251.1622 224.0396 13.83808509245731
AO-27
1 22825U 93061C 18122.18162672 -.00000007 00000-0 15296-4 0 9990
2 22825 098.8593 097.4731 0009366 117.2645 242.9491 14.30028572282728
IO-26
1 22826U 93061D 18123.46823711 -.00000003 00000-0 16373-4 0 9994
2 22826 098.8534 098.8258 0010008 104.8338 255.3953 14.30359982283116
FO-29
1 24278U 96046B 18123.56642199 -.00000025 00000-0 11879-4 0 9993
2 24278 098.5210 328.4644 0349577 226.5876 130.5675 13.53083199071953
NOAA-15
1 25338U 98030A 18123.56135939 .00000022 00000-0 27933-4 0 9999
2 25338 098.7720 139.9582 0010441 003.7481 356.3775 14.25849190038400
GO-32
1 25397U 98043D 18123.82416136 -.00000006 00000-0 16233-4 0 9992
2 25397 98.6470 65.0044 0002084 119.9828 240.1558 14.23644517 29411
ISS
1 25544U 98067A 18123.78478694 .00001483 00000-0 29582-4 0 9994
2 25544 51.6422 240.0593 0003433 44.7581 52.2890 15.54194992111612
NO-44
1 26931U 01043C 18123.60852478 -.00000015 00000-0 26202-4 0 9997
2 26931 067.0519 344.4374 0007238 280.5303 079.4983 14.30503139866101
SO-50
1 27607U 02058C 18123.68103161 -.00000014 00000-0 18767-4 0 9997
2 27607 64.5555 226.0736 0060253 338.4109 21.4453 14.75444007826397
CO-55
1 27844U 03031E 18123.56266920 .00000036 00000-0 35919-4 0 9993
2 27844 098.6880 132.8753 0010654 135.8961 224.3068 14.22109359769816
CO-57
1 27848U 03031J 18123.50958016 .00000025 00000-0 31344-4 0 9991
2 27848 098.6966 133.2061 0010377 145.4896 214.6957 14.21713840769687
RS-22
1 27939U 03042A 18123.77203635 .00000085 00000-0 23783-4 0 9997
2 27939 97.9834 264.0711 0011620 291.5778 174.7549 14.66680671780302
NOAA-18
1 28654U 05018A 18123.54682449 -.00000023 00000-0 12587-4 0 9999
2 28654 099.1494 158.0813 0013317 251.0765 108.8962 14.12374284667380
CO-58
1 28895U 05043F 18123.35837577 .00000134 00000-0 34533-4 0 9994
2 28895 097.9030 276.6457 0016218 206.7240 153.3128 14.63537789667081
Falconsat-3
1 30776U 07006E 18123.57202347 .00001763 00000-0 53332-4 0 9998
2 30776 035.4348 190.7322 0003139 332.9127 027.1435 15.34339959617466
CO-65
1 32785U 08021C 18123.73624412 .00000175 00000-0 24577-4 0 9992
2 32785 97.5491 138.0329 0013062 178.9564 181.1682 14.88104953542562
AAUSAT2
1 32788U 08021F 18123.62609495 .00000774 00000-0 77035-4 0 9999
2 32788 97.5254 151.9808 0013184 132.9243 227.3087 14.94307993543522
DO-64
1 32789U 08021G 18123.46324900 .00000657 00000-0 49215-4 0 9996
2 32789 097.5158 179.3994 0014313 091.4584 268.8283 15.05961033544958
CO-66
1 32791U 08021J 18123.49452922 .00000200 00000-0 25835-4 0 9994
2 32791 097.5388 143.0594 0013955 160.9099 199.2646 14.90528535542771
RS-30
1 32953U 08025A 18123.85333561 .00000006 00000-0 -27596-4 0 9996
2 32953 82.5063 40.2485 0018508 309.7912 50.1537 12.43082963451261
PRISM
1 33493U 09002B 18123.82883544 .00000699 00000-0 67509-4 0 9995
2 33493 98.1366 24.2090 0016726 100.2558 260.0533 14.96180614503712
NOAA-19
1 33591U 09005A 18123.50688654 .00000100 00000-0 79268-4 0 9999
2 33591 99.1388 100.6553 0015061 92.0986 268.1910 14.12274635475871
TISAT-1
1 36799U 10035E 18123.61589007 .00000221 00000-0 28533-4 0 9994
2 36799 098.0994 258.6692 0012181 001.8369 358.2891 14.90770168423315
JUGNU
1 37839U 11058B 18123.78034383 .00000320 00000-0 28931-4 0 9998
2 37839 19.9618 306.5261 0018941 117.1225 351.3573 14.12617540339082
SRMSAT
1 37841U 11058D 18123.79902547 .00000307 00000-0 23917-4 0 9992
2 37841 19.9734 354.6980 0011800 3.3641 68.0000 14.10604824338604
AO-71
1 37854U 11061E 18123.54971977 .00000691 00000-0 44235-4 0 9998
2 37854 101.7067 165.6599 0163996 205.7832 153.5139 15.05321723354663
HRBE
1 37855U 11061F 18123.57952463 .00001078 00000-0 63106-4 0 9999
2 37855 101.7206 163.2965 0176932 214.1885 144.7831 15.04303692354470
ALMASAT-1
1 38078U 12006B 18123.88151642 .00023721 38732-5 21476-3 0 9991
2 38078 69.4323 339.1402 0251992 173.8631 278.8458 15.37798078333831
HORYU-2
1 38340U 12025D 18123.58971731 .00000171 00000-0 33251-4 0 9991
2 38340 098.3690 143.7734 0011445 000.1462 359.9747 14.75538758310126
RS-40
1 38735U 12041C 18123.58810156 .00000004 00000-0 -44618-4 0 9995
2 38735 082.4720 124.4304 0017977 054.0054 306.2689 12.42576494261465
BEESAT-3
1 39134U 13015E 18123.56586551 .00001000 00000-0 56947-4 0 9992
2 39134 064.8635 271.2380 0017122 217.5842 142.4089 15.19053803277749
BEESAT-2
1 39136U 13015G 18123.79873063 .00000700 00000-0 46175-4 0 9994
2 39136 64.8693 285.9354 0025448 239.6429 120.2180 15.16059652277868
ZACUBE-1
1 39417U 13066B 18123.58543674 .00000185 00000-0 29903-4 0 9998
2 39417 097.5912 154.5958 0057703 302.1057 057.4563 14.80918911240194
TRITON-1
1 39427U 13066M 18123.57661700 .00000206 00000-0 40681-4 0 9999
2 39427 097.6405 122.4606 0115188 042.8915 318.1204 14.67647076237843
GOMX-1
1 39430U 13066Q 18123.86558489 .00000172 00000-0 39601-4 0 9996
2 39430 97.6947 103.9418 0152993 110.2357 251.5368 14.59061428236693
LO-74
1 39440U 13066AA 18123.59112562 .00000186 00000-0 33091-4 0 9997
2 39440 097.6038 141.4705 0079971 341.4906 018.3398 14.75653975238149
AO-73
1 39444U 13066AE 18123.60473355 .00000234 00000-0 35441-4 0 9998
2 39444 097.5920 156.0830 0056785 297.4797 062.0651 14.81691519238465
SPROUT
1 39770U 14029E 18123.77285248 .00000442 00000-0 55775-4 0 9993
2 39770 97.8744 225.1975 0009009 5.3910 354.7410 14.86791956213763
DUCHIFAT-1
1 40021U 14033M 18123.74477768 .00000302 00000-0 36983-4 0 9991
2 40021 97.9169 42.3823 0012320 331.5592 28.4952 14.90274426210336
NANOSATCBR1
1 40024U 14033Q 18123.29368964 .00000307 00000-0 38151-4 0 9995
2 40024 97.9107 40.2620 0011688 335.7223 24.3442 14.89541635210196
EO-79
1 40025U 14033R 18123.31593174 .00000284 00000-0 36395-4 0 9994
2 40025 97.9069 38.8030 0012020 339.5754 20.4980 14.88690593210117
DTUSAT-2
1 40030U 14033W 18123.26912732 .00000219 00000-0 29707-4 0 9996
2 40030 097.9017 037.5092 0011322 334.9406 025.1260 14.88300397209545
EO-80
1 40032U 14033Y 18123.72857421 .00000231 00000-0 31088-4 0 9991
2 40032 97.9023 37.9704 0011255 333.8316 26.2331 14.88237420210113
ANTELSAT
1 40034U 14033AA 18123.60211189 .00000198 00000-0 37069-4 0 9992
2 40034 097.8173 001.8531 0058585 343.1771 016.7494 14.73904797207587
VELOX-1
1 40057U 14034E 18123.74492920 .00000268 00000-0 45298-4 0 9998
2 40057 98.1980 234.0370 0012486 109.4714 250.7848 14.77401344207085
DAURIA DX 1
1 40071U 14037C 18123.76509633 .00000080 00000-0 17733-4 0 9994
2 40071 98.3677 253.1622 0009840 101.3913 258.8410 14.81149055206424
UKUBE-1
1 40074U 14037F 18123.71159370 .00000320 00000-0 45782-4 0 9993
2 40074 98.3806 258.7397 0005996 97.4057 262.7841 14.83775689206706
